Weather History for KPHN - May, 2013

Change the Weather History Date:

Thursday, May 16, 2013

  Actual Average Record
Temperature  
Mean Temperature 56 °F -  
Max Temperature 69 °F - - ()
Min Temperature 42 °F - - ()
Degree Days  
Heating Degree Days 10    
Growing Degree Days 6 (Base 50)    
Moisture  
Dew Point 44 °F    
Average Humidity 65    
Maximum Humidity 100    
Minimum Humidity 40    
Precipitation  
Precipitation 0.00 in - - ()
Sea Level Pressure  
Sea Level Pressure 29.90 in    
Wind  
Wind Speed 5 mph (NNE)    
Max Wind Speed 17 mph    
Max Gust Speed 20 mph    
Visibility 10 miles    
Events      
T = Trace of Precipitation, MM = Missing Value Source: NWS Daily Summary

Daily Weather History Graph

Daily Weather History Graph

Search for Another Location

Airport or City:

Trip Planner

Search our weather history database for the weather conditions in past years. The results will help you decide how hot, cold, wet, or windy it might be!

Date:

Astronomy

May. 16, 2013 Rise Set
Actual Time 6:05 AM EDT 8:47 PM EDT
Civil Twilight 5:33 AM EDT 9:20 PM EDT
Nautical Twilight 4:52 AM EDT 10:01 PM EDT
Astronomical Twilight 4:05 AM EDT 10:49 PM EDT
Moon 11:40 AM EDT (5/16) 1:05 AM EDT (5/16)
Length of Visible Light 15h 47m
Length of Day
14h 41m
Waxing Crescent, 35% of the Moon is Illuminated
May 16
Waxing Crescent
May 18
First Quarter
May 25
Full
May 31
Last Quarter
Jun 8
New

Hourly Weather History & Observations

Time (EDT) Temp. Dew Point Humidity Pressure Visibility Wind Dir Wind Speed Gust Speed Precip Events Conditions
12:17 AM 64.4 °F 48.2 °F 56% 29.78 in 10.0 mi NW 3.5 mph - N/A   Scattered Clouds
12:37 AM 62.6 °F 46.4 °F 55% 29.78 in 10.0 mi NW 3.5 mph - N/A   Scattered Clouds
12:57 AM 60.8 °F 46.4 °F 59% 29.78 in 10.0 mi NNW 3.5 mph - N/A   Clear
1:17 AM 60.8 °F 44.6 °F 55% 29.78 in 10.0 mi Calm Calm - N/A   Clear
1:37 AM 55.4 °F 48.2 °F 77% 29.78 in 10.0 mi Calm Calm - N/A   Clear
1:57 AM 51.8 °F 48.2 °F 88% 29.79 in 10.0 mi Calm Calm - N/A   Clear
2:17 AM 50.0 °F 46.4 °F 87% 29.79 in 10.0 mi Calm Calm - N/A   Clear
2:37 AM 50.0 °F 46.4 °F 87% 29.79 in 10.0 mi Calm Calm - N/A   Clear
2:57 AM 50.0 °F 46.4 °F 87% 29.79 in 10.0 mi Calm Calm - N/A   Clear
3:17 AM 48.2 °F 44.6 °F 87% 29.79 in 10.0 mi Calm Calm - N/A   Clear
3:37 AM 48.2 °F 46.4 °F 93% 29.79 in 10.0 mi Calm Calm - N/A   Clear
3:57 AM 44.6 °F 44.6 °F 100% 29.80 in 10.0 mi Calm Calm - N/A   Clear
4:17 AM 44.6 °F 44.6 °F 100% 29.80 in 10.0 mi Calm Calm - N/A   Clear
4:37 AM 44.6 °F 44.6 °F 100% 29.80 in 10.0 mi Calm Calm - N/A   Clear
4:57 AM 44.6 °F 44.6 °F 100% 29.81 in 10.0 mi Calm Calm - N/A   Clear
5:17 AM 44.6 °F 44.6 °F 100% 29.81 in 10.0 mi Calm Calm - N/A   Clear
5:37 AM 44.6 °F 44.6 °F 100% 29.82 in 10.0 mi Calm Calm - N/A   Clear
5:57 AM 42.8 °F 42.8 °F 100% 29.83 in 10.0 mi Calm Calm - N/A   Clear
6:17 AM 42.8 °F 42.8 °F 100% 29.83 in 10.0 mi Calm Calm - N/A   Clear
6:37 AM 44.6 °F 44.6 °F 100% 29.83 in 10.0 mi Calm Calm - N/A   Clear
6:57 AM 46.4 °F 46.4 °F 100% 29.83 in 10.0 mi Calm Calm - N/A   Clear
7:17 AM 50.0 °F 50.0 °F 100% 29.84 in 10.0 mi Calm Calm - N/A   Clear
7:37 AM 55.4 °F 50.0 °F 82% 29.84 in 10.0 mi Calm Calm - N/A   Clear
7:57 AM 57.2 °F 48.2 °F 72% 29.84 in 10.0 mi Calm Calm - N/A   Clear
8:17 AM 60.8 °F 48.2 °F 63% 29.85 in 10.0 mi Calm Calm - N/A   Clear
8:37 AM 62.6 °F 48.2 °F 59% 29.85 in 10.0 mi West 3.5 mph - N/A   Clear
8:57 AM 64.4 °F 48.2 °F 56% 29.86 in 10.0 mi WNW 5.8 mph - N/A   Clear
9:17 AM 66.2 °F 50.0 °F 56% 29.86 in 10.0 mi WNW 5.8 mph - N/A   Clear
9:37 AM 68.0 °F 48.2 °F 49% 29.87 in 10.0 mi NW 8.1 mph - N/A   Clear
9:57 AM 68.0 °F 48.2 °F 49% 29.87 in 10.0 mi NW 8.1 mph - N/A   Clear
10:17 AM 69.8 °F 48.2 °F 46% 29.88 in 10.0 mi North 6.9 mph - N/A   Clear
10:37 AM 69.8 °F 46.4 °F 43% 29.88 in 10.0 mi North 5.8 mph - N/A   Clear
10:57 AM 69.8 °F 48.2 °F 46% 29.89 in 10.0 mi NE 10.4 mph - N/A   Clear
11:17 AM 68.0 °F 48.2 °F 49% 29.91 in 10.0 mi NE 12.7 mph - N/A   Clear
11:37 AM 66.2 °F 46.4 °F 49% 29.91 in 10.0 mi NE 15.0 mph - N/A   Clear
11:57 AM 64.4 °F 46.4 °F 52% 29.92 in 10.0 mi NE 13.8 mph - N/A   Clear
12:17 PM 62.6 °F 44.6 °F 52% 29.93 in 10.0 mi NNE 15.0 mph 19.6 mph N/A   Clear
12:37 PM 62.6 °F 44.6 °F 52% 29.93 in 10.0 mi NE 17.3 mph - N/A   Clear
12:57 PM 64.4 °F 42.8 °F 45% 29.94 in 10.0 mi NE 15.0 mph 18.4 mph N/A   Clear
1:17 PM 64.4 °F 42.8 °F 45% 29.93 in 10.0 mi NE 12.7 mph - N/A   Clear
1:37 PM 64.4 °F 42.8 °F 45% 29.93 in 10.0 mi NNE 11.5 mph - N/A   Clear
1:57 PM 64.4 °F 41.0 °F 42% 29.94 in 10.0 mi NE 15.0 mph - N/A   Clear
2:17 PM 64.4 °F 41.0 °F 42% 29.93 in 10.0 mi NE 11.5 mph - N/A   Clear
2:37 PM 64.4 °F 42.8 °F 45% 29.93 in 10.0 mi NE 13.8 mph - N/A   Clear
2:57 PM 66.2 °F 42.8 °F 43% 29.93 in 10.0 mi NE 10.4 mph - N/A   Clear
3:17 PM 66.2 °F 41.0 °F 40% 29.94 in 10.0 mi NNE 9.2 mph - N/A   Clear
3:37 PM 66.2 °F 41.0 °F 40% 29.94 in 10.0 mi NNE 10.4 mph - N/A   Clear
3:57 PM 66.2 °F 41.0 °F 40% 29.94 in 10.0 mi NNE 9.2 mph - N/A   Clear
4:17 PM 64.4 °F 41.0 °F 42% 29.94 in 10.0 mi NNE 11.5 mph - N/A   Clear
4:37 PM 62.6 °F 41.0 °F 45% 29.94 in 10.0 mi NE 13.8 mph 17.3 mph N/A   Clear
4:57 PM 60.8 °F 41.0 °F 48% 29.94 in 10.0 mi NNE 13.8 mph 19.6 mph N/A   Clear
5:17 PM 59.0 °F 41.0 °F 51% 29.95 in 10.0 mi NE 11.5 mph - N/A   Clear
5:37 PM 59.0 °F 39.2 °F 48% 29.95 in 10.0 mi NE 15.0 mph 19.6 mph N/A   Clear
5:57 PM 59.0 °F 41.0 °F 51% 29.96 in 10.0 mi NE 11.5 mph - N/A   Clear
6:17 PM 57.2 °F 39.2 °F 51% 29.96 in 10.0 mi NNE 11.5 mph 17.3 mph N/A   Clear
6:37 PM 57.2 °F 41.0 °F 55% 29.97 in 10.0 mi NE 11.5 mph - N/A   Clear
6:57 PM 55.4 °F 39.2 °F 54% 29.97 in 10.0 mi NE 11.5 mph - N/A   Clear
7:17 PM 55.4 °F 39.2 °F 54% 29.98 in 10.0 mi NNE 8.1 mph - N/A   Clear
7:37 PM 53.6 °F 39.2 °F 58% 29.98 in 10.0 mi NNE 9.2 mph - N/A   Clear
7:57 PM 53.6 °F 39.2 °F 58% 29.98 in 10.0 mi NNE 8.1 mph - N/A   Clear
8:17 PM 51.8 °F 39.2 °F 62% 29.98 in 10.0 mi NNE 5.8 mph - N/A   Clear
8:37 PM 50.0 °F 39.2 °F 66% 29.99 in 10.0 mi North 5.8 mph - N/A   Clear
8:57 PM 50.0 °F 39.2 °F 66% 30.00 in 10.0 mi NNE 5.8 mph - N/A   Clear
9:17 PM 48.2 °F 39.2 °F 71% 30.01 in 10.0 mi NNE 5.8 mph - N/A   Clear
9:37 PM 48.2 °F 39.2 °F 71% 30.02 in 10.0 mi NNE 3.5 mph - N/A   Clear
9:57 PM 48.2 °F 39.2 °F 71% 30.02 in 10.0 mi NNE 5.8 mph - N/A   Clear
10:17 PM 48.2 °F 39.2 °F 71% 30.03 in 10.0 mi NNE 3.5 mph - N/A   Clear
10:37 PM 48.2 °F 39.2 °F 71% 30.04 in 10.0 mi North 3.5 mph - N/A   Clear
10:57 PM 48.2 °F 39.2 °F 71% 30.04 in 10.0 mi North 3.5 mph - N/A   Clear
11:17 PM 48.2 °F 39.2 °F 71% 30.04 in 10.0 mi North 3.5 mph - N/A   Clear
11:37 PM 46.4 °F 39.2 °F 76% 30.05 in 10.0 mi Calm Calm - N/A   Clear
11:57 PM 46.4 °F 39.2 °F 76% 30.06 in 10.0 mi Calm Calm - N/A   Clear